Regional Weather Roundup
Issued by NWS

Home | Current Version | Previous Version | Text Only | Print | Product List | Glossary On
Versions: 1 2 3 4 5 6 7 8 9 10 11 12 13 14 15 16 17 18 19 20 21 22 23 24 25 26 27 28 29 30 31 32 33 34 35 36 37 38 39 40 41 42 43 44 45 46 47 48 49 50
000
ASUS43 KLSX 090410
RWRMO

WEATHER SUMMARY FOR MISSOURI
NATIONAL WEATHER SERVICE SPRINGFIELD MO
1000 PM CST MON FEB 08 2016

NOTE: "FAIR" INDICATES FEW OR NO CLOUDS BELOW 12,000 FEET WITH NO
       SIGNIFICANT WEATHER AND/OR OBSTRUCTIONS TO VISIBILITY.
       CURRENT SKY AND/OR WEATHER CONDITIONS ARE NOT AVAILABLE FOR
       CHILLICOTHE AND FARMINGTON.

MOZ001>031-035>038-043-044-053-054-090500-
...NORTHERN AND WESTERN MISSOURI...

CITY           SKY/WX    TMP DP  RH WIND       PRES   REMARKS
KANSAS CTY INT CLOUDY    26  17  68 NW7       30.08S WCI  18
KANSAS C DTWN  CLOUDY    29  16  58 NW7       30.09F WCI  22
LEE`S SUMMIT   CLEAR     28  15  58 NW13G25   30.08S WCI  17
ST JOSEPH      CLOUDY    27  17  66 NW10      30.08F WCI  17
CHILLICOTHE      N/A     24  12  60 NW15G28   30.05S WCI  11
KIRKSVILLE     FLURRIES  20  12  71 NW15G21   29.97F WCI   6

$$
MOZ066>068-077>081-088>096-101>105-090500-
...SOUTHWEST MISSOURI...

CITY           SKY/WX    TMP DP  RH WIND       PRES   REMARKS
SPRINGFIELD    CLEAR     29  13  51 NW15G23   30.03S WCI  18
JOPLIN         CLOUDY    31  14  49 NW10      30.12S WCI  22

$$
MOZ032>034-039>042-045>050-055>058-069>072-090500-
...CENTRAL MISSOURI...

CITY           SKY/WX    TMP DP  RH WIND       PRES   REMARKS
COLUMBIA       CLOUDY    23  12  62 NW21      29.99S WCI   8
JEFFERSON CITY CLOUDY    25  12  58 NW17G24   30.02S WCI  12
ROLLA          LGT SNOW  22  17  81 NW14G24   29.94F WCI   9
SEDALIA        CLOUDY    27  15  61 NW20G30   30.03F WCI  13
WHITEMAN AFB   CLOUDY    26  14  59 NW20G28   30.03F WCI  13
WARRENSBURG    CLEAR     28  16  59 NW18G29   30.07R WCI  16
OSAGE BEACH    CLOUDY    27  12  54 NW8G16    30.01F WCI  18

$$
MOZ051-052-059>065-090500-
...EAST CENTRAL MISSOURI...

CITY           SKY/WX    TMP DP  RH WIND       PRES   REMARKS
ST LOUIS INTL  FLURRIES  24  12  60 NW17G28   29.94F WCI  11
SPIRIT OF STL  CLOUDY    24  12  60 NW14      29.95F WCI  12
ST CHARLES     CLOUDY    23  12  62 NW20      29.94F WCI   8

$$
MOZ072>076-082>087-097>100-106>115-090500-
...SOUTH CENTRAL AND SOUTHEAST MISSOURI...

CITY           SKY/WX    TMP DP  RH WIND       PRES   REMARKS
CAPE GIRARDEAU CLOUDY    29  14  53 NW17      29.95S WCI  17
FARMINGTON     CLOUDY    25  14  63 NW15G21   29.92F WCI  13
POPLAR BLUFF   CLOUDY    31  15  52 NW21G30   29.96F WCI  18
WEST PLAINS    CLOUDY    27  17  66 NW14G22   29.98F WCI  16

$$



USA.gov is the U.S. government's official web portal to all federal, state and local government web resources and services.